Location: Dampvalley
(47.9094°N, 6.1967°E)
Time: 15:30:17
(UTC+00:00)

ISS - Visible Passes

Search period start: 20 September 2021 00:00
Search period end: 30 September 2021 00:00
Orbit: 419 x 423 km, 51.6° (Epoch: 20 September)

Date Brightness Start Highest point End Pass type
(mag) Time Alt. Az. Time Alt. Az. Time Alt. Az.
20 Sep -3.8 18:54:29 10° WSW 18:57:51 90° S 18:59:51 23° ENE visible
20 Sep -1.0 20:31:41 10° WNW 20:32:51 19° WNW 20:32:51 19° WNW visible
21 Sep -3.7 18:07:39 10° SW 18:10:59 64° SSE 18:14:20 10° ENE visible
21 Sep -2.9 19:44:40 10° W 19:47:52 46° NNW 19:47:52 46° NNW visible
22 Sep -3.2 18:57:40 10° W 19:00:58 54° NNW 19:02:48 23° NE visible
22 Sep -0.7 20:34:55 10° WNW 20:35:48 16° WNW 20:35:48 16° WNW visible
23 Sep -3.5 18:10:40 10° WSW 18:14:01 67° NNW 18:17:24 10° ENE visible
23 Sep -2.5 19:47:57 10° WNW 19:50:41 39° NNW 19:50:41 39° NNW visible
24 Sep -2.8 19:00:56 10° WNW 19:04:11 42° N 19:05:32 27° NE visible
24 Sep -0.5 20:38:00 10° WNW 20:38:32 14° WNW 20:38:32 14° WNW visible
25 Sep -2.9 18:13:55 10° W 18:17:11 46° N 18:20:22 11° ENE visible
25 Sep -2.2 19:51:05 10° WNW 19:53:21 35° NW 19:53:21 35° NW visible
26 Sep -3.0 19:04:08 10° WNW 19:07:24 44° N 19:08:11 37° NE visible
26 Sep -0.2 20:41:02 10° WNW 20:41:10 11° WNW 20:41:10 11° WNW visible
27 Sep -2.9 18:17:09 10° WNW 18:20:24 42° N 18:23:00 14° ENE visible
27 Sep -1.8 19:54:07 10° WNW 19:55:59 30° WNW 19:55:59 30° WNW visible
28 Sep -3.7 19:07:12 10° WNW 19:10:34 63° NNE 19:10:49 59° NE visible
29 Sep -3.3 18:20:16 10° WNW 18:23:34 51° NNE 18:25:41 20° E visible
29 Sep -1.4 19:57:10 10° WNW 19:58:40 23° W 19:58:40 23° W visible
